Date String (YYYY-MM-DD hh:mm:ss) UTC,Instrument flags,absolute air pressure of the measurement (hPa),sample flow rate (lpm),inlet stack bypass flow (lpm),air temperature of the measurement (°C),ambient temperature measured by the external sensor (°C),aerosol sample conditioner tube jacket temperature (°C),OPC LED temperature (°C),internal box temperature (°C),relative humidity of the measurement (%),span deviation,mass concentration of particles derived from Lorenz-Mie calculation of OPC scattering (μg/m³),mass concentration of particles derived from Lorenz-Mie calculation of OPC scattering (μg/m³),mass concentration of particles derived from Lorenz-Mie calculation of OPC scattering (μg/m³)
DateTimeUTC,F1_M11,P_M11,Q1_M11,Q2_M11,T1_M11,T2_M11,T3_M11,T4_M11,T5_M11,U1_M11,ZSPAN_M11,X0_M11,X2_M11,X1_M11
2024-04-02 12:00:00,SystemResetWarning,0830.5,5.01,000.00,018.8,018.7,000.0,027.1,020.7,20.3,0000.0,0001.41,0001.21,0001.12
2024-04-02 12:01:00,SystemResetWarning,0830.4,5.00,000.00,018.8,018.6,000.0,027.1,020.6,20.2,0000.0,0001.41,0001.21,0001.12
2024-04-02 12:02:00,SystemResetWarning,0830.5,4.99,000.00,018.8,018.4,000.0,027.1,020.5,20.0,0000.0,0001.44,0001.21,0001.11
2024-04-02 12:03:00,SystemResetWarning,0830.4,4.99,000.00,018.7,018.3,000.0,027.1,020.5,19.4,0000.0,0001.44,0001.20,0001.10
2024-04-02 12:04:00,SystemResetWarning,0830.5,5.01,000.00,018.7,018.2,000.0,027.1,020.4,19.9,0000.0,0001.44,0001.20,0001.10
2024-04-02 12:05:00,SystemResetWarning,0830.4,5.01,000.00,018.7,018.1,000.0,027.1,020.4,19.5,0000.0,0001.45,0001.20,0001.09
2024-04-02 12:06:00,SystemResetWarning,0830.4,5.01,000.00,018.7,018.0,000.0,027.1,020.3,19.0,0000.0,0001.40,0001.20,0001.09
2024-04-02 12:07:00,SystemResetWarning,0830.7,5.00,000.00,018.6,018.0,000.0,027.1,020.3,18.9,0000.0,0001.41,0001.21,0001.09
2024-04-02 12:08:00,SystemResetWarning,0830.5,5.00,000.00,018.6,017.9,000.0,027.1,020.3,19.4,0000.0,0001.42,0001.21,0001.09
2024-04-02 12:09:00,SystemResetWarning,0830.4,5.00,000.00,018.6,017.9,000.0,027.1,020.2,19.6,0000.0,0001.40,0001.20,0001.09
2024-04-02 12:10:00,SystemResetWarning,0830.5,5.00,000.00,018.5,017.9,000.0,027.1,020.2,19.7,0000.0,0001.43,0001.21,0001.09
2024-04-02 12:11:00,SystemResetWarning,0830.7,5.00,000.00,018.5,017.8,000.0,027.1,020.2,19.7,0000.0,0001.47,0001.23,0001.10
2024-04-02 12:12:00,SystemResetWarning,0830.6,5.00,000.00,018.5,017.8,000.0,027.1,020.2,19.9,0000.0,0001.56,0001.27,0001.10
2024-04-02 12:13:00,SystemResetWarning,0830.6,5.01,000.00,018.5,017.7,000.0,027.1,020.1,20.0,0000.0,0001.67,0001.31,0001.10
2024-04-02 12:14:00,SystemResetWarning,0830.6,5.00,000.00,018.4,017.7,000.0,027.1,020.1,20.0,0000.0,0001.67,0001.31,0001.10
2024-04-02 12:15:00,SystemResetWarning,0830.5,4.99,000.00,018.4,017.7,000.0,027.1,020.1,20.2,0000.0,0001.68,0001.31,0001.10
2024-04-02 12:16:00,SystemResetWarning,0830.6,4.99,000.00,018.4,017.7,000.0,027.1,020.1,20.4,0000.0,0001.69,0001.32,0001.11
2024-04-02 12:17:00,SystemResetWarning,0830.6,5.00,000.00,018.4,017.6,000.0,027.0,020.0,20.4,0000.0,0001.73,0001.32,0001.11
2024-04-02 12:18:00,SystemResetWarning,0830.6,5.00,000.00,018.3,017.6,000.0,027.0,020.0,20.3,0000.0,0001.75,0001.32,0001.12
2024-04-02 12:19:00,SystemResetWarning,0830.7,5.00,000.00,018.3,017.6,000.0,027.0,020.0,20.4,0000.0,0001.73,0001.30,0001.11
2024-04-02 12:20:00,SystemResetWarning,0830.7,5.00,000.00,018.3,017.6,000.0,027.0,020.0,20.5,0000.0,0001.70,0001.29,0001.11
2024-04-02 12:21:00,SystemResetWarning,0830.7,5.01,000.00,018.3,017.5,000.0,027.0,020.0,20.1,0000.0,0001.71,0001.29,0001.11
2024-04-02 12:22:00,SystemResetWarning,0830.7,5.01,000.00,018.3,017.5,000.0,027.0,020.0,19.8,0000.0,0001.66,0001.27,0001.10
2024-04-02 12:23:00,SystemResetWarning,0830.7,4.99,000.00,018.3,017.5,000.0,027.0,020.0,19.9,0000.0,0001.57,0001.24,0001.10
2024-04-02 12:24:00,SystemResetWarning,0830.7,4.98,000.00,018.3,017.5,000.0,027.0,020.0,19.6,0000.0,0001.51,0001.19,0001.09
2024-04-02 12:25:00,SystemResetWarning,0830.7,5.01,000.00,018.3,017.5,000.0,027.0,020.0,18.9,0000.0,0001.55,0001.20,0001.09
2024-04-02 12:26:00,SystemResetWarning,0830.8,5.01,000.00,018.3,017.4,000.0,027.0,020.0,18.8,0000.0,0001.52,0001.18,0001.09
2024-04-02 12:27:00,SystemResetWarning,0830.9,4.99,000.00,018.2,017.4,000.0,027.0,020.0,19.7,0000.0,0001.53,0001.18,0001.08
2024-04-02 12:28:00,SystemResetWarning,0830.9,4.99,000.00,018.2,017.4,000.0,027.0,020.0,19.9,0000.0,0001.49,0001.17,0001.08
2024-04-02 12:29:00,SystemResetWarning,0830.9,5.00,000.00,018.3,018.0,000.0,027.1,020.4,19.7,0000.0,0001.47,0001.16,0001.06
2024-04-02 12:30:00,SystemResetWarning,0831.0,5.01,000.00,018.6,018.9,000.0,027.2,020.9,19.1,0000.0,0001.45,0001.15,0001.06
2024-04-02 12:31:00,SystemResetWarning,0831.1,4.99,000.00,018.8,019.3,000.0,027.2,021.2,18.7,0000.0,0001.44,0001.14,0001.05
2024-04-02 12:32:00,SystemResetWarning,0831.1,4.99,000.00,018.8,019.1,000.0,027.1,021.0,18.5,0000.0,0001.41,0001.13,0001.05
2024-04-02 12:33:00,SystemResetWarning,0831.1,5.01,000.00,018.8,018.9,000.0,027.1,020.9,18.5,0000.0,0001.46,0001.14,0001.04
2024-04-02 12:34:00,SystemResetWarning,0831.1,5.01,000.00,018.8,018.7,000.0,027.1,020.7,18.5,0000.0,0001.51,0001.15,0001.04
2024-04-02 12:35:00,SystemResetWarning,0831.2,5.00,000.00,018.8,018.6,000.0,027.2,020.6,18.7,0000.0,0001.52,0001.17,0001.04
2024-04-02 12:36:00,SystemResetWarning,0831.2,5.00,000.00,018.8,018.4,000.0,027.2,020.6,19.0,0000.0,0001.53,0001.18,0001.04
2024-04-02 12:37:00,SystemResetWarning,0831.1,5.00,000.00,018.8,018.3,000.0,027.2,020.5,18.8,0000.0,0001.55,0001.19,0001.04
2024-04-02 12:38:00,SystemResetWarning,0831.1,4.99,000.00,018.7,018.2,000.0,027.2,020.4,18.7,0000.0,0001.53,0001.17,0001.03
2024-04-02 12:39:00,SystemResetWarning,0831.1,5.00,000.00,018.7,018.1,000.0,027.2,020.4,18.7,0000.0,0001.56,0001.17,0001.01
2024-04-02 12:40:00,SystemResetWarning,0831.1,4.99,000.00,018.7,018.0,000.0,027.2,020.4,18.8,0000.0,0001.61,0001.18,0001.01
2024-04-02 12:41:00,SystemResetWarning,0831.1,5.00,000.00,018.7,018.0,000.0,027.2,020.4,18.5,0000.0,0001.60,0001.18,0001.01
2024-04-02 12:42:00,SystemResetWarning,0831.2,5.01,000.00,018.6,017.9,000.0,027.2,020.3,18.2,0000.0,0001.66,0001.20,0001.01
2024-04-02 12:43:00,SystemResetWarning,0831.1,5.01,000.00,018.6,017.9,000.0,027.2,020.3,17.8,0000.0,0001.68,0001.20,0001.00
2024-04-02 12:44:00,SystemResetWarning,0831.1,5.00,000.00,018.6,017.8,000.0,027.2,020.3,17.8,0000.0,0001.63,0001.18,0000.99
2024-04-02 12:45:00,SystemResetWarning,0831.1,4.99,000.00,018.6,017.8,000.0,027.2,020.2,17.6,0000.0,0001.65,0001.18,0000.99
2024-04-02 12:46:00,SystemResetWarning,0831.1,4.99,000.00,018.5,017.8,000.0,027.1,020.2,17.8,0000.0,0001.57,0001.15,0000.98
2024-04-02 12:47:00,SystemResetWarning,0831.2,5.01,000.00,018.5,017.8,000.0,027.1,020.2,18.0,0000.0,0001.46,0001.11,0000.96
2024-04-02 12:48:00,SystemResetWarning,0831.3,5.01,000.00,018.5,017.7,000.0,027.1,020.2,18.1,0000.0,0001.44,0001.11,0000.97
2024-04-02 12:49:00,SystemResetWarning,0831.3,4.99,000.00,018.5,017.7,000.0,027.1,020.1,18.3,0000.0,0001.45,0001.11,0000.97
2024-04-02 12:50:00,SystemResetWarning,0831.3,4.99,000.00,018.4,017.7,000.0,027.1,020.1,18.4,0000.0,0001.43,0001.11,0000.97
2024-04-02 12:51:00,SystemResetWarning,0831.3,5.00,000.00,018.4,017.7,000.0,027.1,020.1,18.3,0000.0,0001.40,0001.09,0000.97
2024-04-02 12:52:00,SystemResetWarning,0831.3,5.01,000.00,018.4,017.7,000.0,027.1,020.1,18.1,0000.0,0001.42,0001.10,0000.97
2024-04-02 12:53:00,SystemResetWarning,0831.3,5.00,000.00,018.4,017.6,000.0,027.0,020.0,18.3,0000.0,0001.38,0001.08,0000.97
2024-04-02 12:54:00,SystemResetWarning,0831.3,4.99,000.00,018.4,017.6,000.0,027.0,020.0,18.0,0000.0,0001.36,0001.08,0000.96
2024-04-02 12:55:00,SystemResetWarning,0831.3,5.00,000.00,018.3,017.6,000.0,027.0,020.0,18.2,0000.0,0001.38,0001.08,0000.97
2024-04-02 12:56:00,SystemResetWarning,0831.3,5.01,000.00,018.3,017.6,000.0,027.0,020.0,18.2,0000.0,0001.40,0001.10,0000.97
2024-04-02 12:57:00,SystemResetWarning,0831.3,5.01,000.00,018.3,017.5,000.0,027.0,020.0,18.3,0000.0,0001.43,0001.12,0000.98
2024-04-02 12:58:00,SystemResetWarning,0831.3,5.01,000.00,018.3,017.5,000.0,027.0,020.0,18.4,0000.0,0001.44,0001.13,0000.99
2024-04-02 12:59:00,SystemResetWarning,0831.4,4.99,000.00,018.3,017.5,000.0,027.0,020.0,18.4,0000.0,0001.58,0001.16,0000.99
